This is the latest recevied weather packets stored in our database for station/object WC0AA15WX. If no packets are shown the sender has not sent any weather packets the latest 10 day(s).
| Time | Temp. | Humidity | Pressure | Rain* | Wind** | Luminosity | Snow |
|---|---|---|---|---|---|---|---|
| 1777665882 | 20° C | 32% | 1022.7 hPa | 0 mm | - | - | - |
| 1777665281 | 21.67° C | 30% | 1023 hPa | 0 mm | - | - | - |
| 1777664681 | 18.89° C | 31% | 1023 hPa | 0 mm | - | - | - |
| 1777664081 | 19.44° C | 33% | 1023 hPa | 0 mm | - | - | - |
| 1777663481 | 20° C | 33% | 1023.4 hPa | 0 mm | - | - | - |
| 1777662881 | 20.56° C | 32% | 1023.4 hPa | 0 mm | - | - | - |
| 1777662281 | 18.89° C | 33% | 1023.4 hPa | 0 mm | - | - | - |
| 1777661681 | 20.56° C | 31% | 1023.4 hPa | 0 mm | - | - | - |
| 1777661081 | 19.44° C | 32% | 1023.4 hPa | 0 mm | - | - | - |
| 1777660481 | 19.44° C | 32% | 1023.4 hPa | 0 mm | - | - | - |
| 1777659915 | 19.44° C | 34% | 1023.4 hPa | 0 mm | - | - | - |
| 1777659881 | 19.44° C | 34% | 1023.4 hPa | 0 mm | - | - | - |
| 1777659281 | 19.44° C | 33% | 1023.4 hPa | 0 mm | - | - | - |
| 1777658681 | 18.33° C | 35% | 1023.7 hPa | 0 mm | - | - | - |
| 1777658081 | 19.44° C | 34% | 1023.7 hPa | 0 mm | - | - | - |
| 1777657451 | 17.78° C | 34% | 1023.7 hPa | 0 mm | - | - | - |
| 1777656851 | 17.78° C | 34% | 1024 hPa | 0 mm | - | - | - |
| 1777656251 | 17.78° C | 34% | 1024 hPa | 0 mm | - | - | - |
| 1777655651 | 17.78° C | 36% | 1024 hPa | 0 mm | - | - | - |
| 1777655051 | 17.22° C | 39% | 1024 hPa | 0 mm | - | - | - |
| 1777654451 | 17.22° C | 39% | 1024 hPa | 0 mm | - | - | - |
| 1777653851 | 16.11° C | 38% | 1024 hPa | 0 mm | - | - | - |
| 1777653251 | 16.11° C | 40% | 1024 hPa | 0 mm | - | - | - |
| 1777652651 | 16.11° C | 41% | 1024 hPa | 0 mm | - | - | - |
| 1777652051 | 15.56° C | 43% | 1024 hPa | 0 mm | - | - | - |
* Rain latest hour (hover to see other rain measurements)
** Current wind speed in m/s (hover to see current wind gust speed)